TimeSAST,TemperatureF,Dew PointF,Humidity,Sea Level PressureIn,VisibilityMPH,Wind Direction,Wind SpeedMPH,Gust SpeedMPH,PrecipitationIn,Events,Conditions,WindDirDegrees,DateUTC
12:00 AM,42.8,37.4,81,30.18,6.2,WNW,10.4,-,N/A,,Partly Cloudy,300,2013-08-21 22:00:00
1:00 AM,44.6,37.4,76,30.18,6.2,WNW,10.4,-,N/A,,Scattered Clouds,300,2013-08-21 23:00:00
2:00 AM,44.6,37.4,76,30.18,-9999.0,NW,10.4,-,N/A,,Clear,310,2013-08-22 00:00:00
3:00 AM,42.8,35.6,76,30.21,-9999.0,NW,9.2,-,N/A,,Clear,310,2013-08-22 01:00:00
4:00 AM,42.8,35.6,76,30.21,6.2,WNW,6.9,-,N/A,,Partly Cloudy,300,2013-08-22 02:00:00
5:00 AM,42,34,64,30.24,12,WNW,6.9,,,,,300,2013-08-22 03:00:00
5:00 AM,42.8,33.8,70,30.21,-9999.0,WNW,6.9,-,N/A,,Clear,300,2013-08-22 03:00:00
6:00 AM,41.0,33.8,76,30.21,-9999.0,NNW,6.9,-,N/A,,Clear,330,2013-08-22 04:00:00
7:00 AM,41.0,32.0,70,30.24,6.2,NNW,8.1,-,N/A,,Partly Cloudy,340,2013-08-22 05:00:00
8:00 AM,44,35,60,30.28,19,NNW,8.1,,,,Scattered Clouds,340,2013-08-22 06:00:00
8:00 AM,44.6,35.6,71,30.24,6.2,NNW,5.8,-,N/A,,Partly Cloudy,340,2013-08-22 06:00:00
9:00 AM,50.0,35.6,58,30.27,-9999.0,NW,6.9,-,N/A,,Clear,320,2013-08-22 07:00:00
10:00 AM,53.6,35.6,51,30.27,-9999.0,WNW,13.8,-,N/A,,Clear,290,2013-08-22 08:00:00
11:00 AM,54,32,31,30.28,25,West,12.7,,,,,280,2013-08-22 09:00:00
11:00 AM,55.4,35.6,47,30.27,-9999.0,West,12.7,-,N/A,,Clear,280,2013-08-22 09:00:00
12:00 PM,55.4,33.8,44,30.24,-9999.0,West,10.4,-,N/A,,Clear,280,2013-08-22 10:00:00
1:00 PM,57.2,35.6,44,30.21,-9999.0,West,10.4,-,N/A,,Clear,260,2013-08-22 11:00:00
2:00 PM,58,34,29,30.21,12,WSW,10.4,,,,,250,2013-08-22 12:00:00
2:00 PM,57.2,33.8,41,30.18,-9999.0,WSW,10.4,-,N/A,,Clear,250,2013-08-22 12:00:00
3:00 PM,59.0,35.6,42,30.18,-9999.0,West,8.1,-,N/A,,Clear,270,2013-08-22 13:00:00
4:00 PM,57.2,37.4,48,30.18,-9999.0,SSW,10.4,-,N/A,,Clear,200,2013-08-22 14:00:00
5:00 PM,55,38,42,30.20,12,SSW,9.2,,,,,200,2013-08-22 15:00:00
5:00 PM,55.4,39.2,54,30.18,-9999.0,SSW,9.2,-,N/A,,Clear,200,2013-08-22 15:00:00
6:00 PM,53.6,39.2,58,30.21,-9999.0,WSW,2.3,-,N/A,,Clear,250,2013-08-22 16:00:00
7:00 PM,50.0,39.2,66,30.21,-9999.0,Variable,2.3,-,N/A,,Clear,0,2013-08-22 17:00:00
8:00 PM,46,39,69,30.25,12,North,3.5,,,,Scattered Clouds,350,2013-08-22 18:00:00
8:00 PM,46.4,39.2,76,30.24,6.2,North,3.5,-,N/A,,Partly Cloudy,350,2013-08-22 18:00:00
10:00 PM,44.6,39.2,81,30.24,6.2,NW,4.6,-,N/A,,Partly Cloudy,320,2013-08-22 20:00:00
11:00 PM,44.6,39.2,81,30.24,6.2,NW,3.5,-,N/A,,Mostly Cloudy,320,2013-08-22 21:00:00